Fort Meade, MD

8:39 PM EDT on April 24, 2018 (GMT -0400)
Tipton

Weather History for KFME - July, 2013

Change the Weather History Date:

Sunday, July 7, 2013

  Actual Average (KBWI) Record (KBWI)
Temperature  
Mean Temperature 78 °F -  
Max Temperature 89 °F 86 °F 104 °F (2012)
Min Temperature 68 °F 65 °F 53 °F (1980)
Cooling Degree Days 14    
Growing Degree Days 28 (Base 50)    
Moisture  
Dew Point 69 °F    
Average Humidity 79    
Maximum Humidity 100    
Minimum Humidity 52    
Precipitation  
Precipitation 0.00 in - - ()
Sea Level Pressure  
Sea Level Pressure 30.09 in    
Wind  
Wind Speed 3 mph (SW)    
Max Wind Speed 18 mph    
Max Gust Speed 28 mph    
Visibility 9 miles    
Events      
Averages and records for this station are not official NWS values.
T = Trace of Precipitation, MM = Missing Value Source: NWS Daily Summary

Daily Weather History Graph

Daily Weather History Graph

Search for Another Location

Airport or City:

Astronomy

Jul. 07, 2013 Rise Set
Actual Time 5:48 AM EDT 8:35 PM EDT
Civil Twilight 5:16 AM EDT 9:07 PM EDT
Nautical Twilight 4:36 AM EDT 9:47 PM EDT
Astronomical Twilight 3:51 AM EDT 10:32 PM EDT
Moon 5:21 AM EDT (7/7) 7:58 PM EDT (7/7)
Length of Visible Light 15h 50m
Length of Day
14h 47m
Waning Crescent, 0% of the Moon is Illuminated
Jul 7
Waning Crescent
Jul 8
New
Jul 15
First Quarter
Jul 22
Full
Jul 29
Last Quarter

Hourly Weather History & Observations

Time (EDT) Temp. Heat Index Dew Point Humidity Pressure Visibility Wind Dir Wind Speed Gust Speed Precip Events Conditions
12:00 AM 71.6 °F - 69.8 °F 94% 30.14 in 10.0 mi Calm Calm - N/A   Clear
12:21 AM 71.6 °F - 68.0 °F 88% 30.14 in 10.0 mi Calm Calm - N/A   Clear
12:39 AM 71.6 °F - 68.0 °F 88% 30.14 in 10.0 mi Calm Calm - N/A   Clear
1:00 AM 69.8 °F - 68.0 °F 94% 30.13 in 10.0 mi Calm Calm - N/A   Clear
1:21 AM 69.8 °F - 68.0 °F 94% 30.13 in 10.0 mi Calm Calm - N/A   Clear
1:39 AM 69.8 °F - 68.0 °F 94% 30.13 in 10.0 mi SSW 3.5 mph - N/A   Clear
2:00 AM 69.8 °F - 68.0 °F 94% 30.12 in 7.0 mi Calm Calm - N/A   Clear
2:21 AM 69.8 °F - 68.0 °F 94% 30.12 in 7.0 mi Calm Calm - N/A   Clear
2:39 AM 69.8 °F - 68.0 °F 94% 30.11 in 7.0 mi Calm Calm - N/A   Clear
3:00 AM 69.8 °F - 68.0 °F 94% 30.11 in 7.0 mi Calm Calm - N/A   Clear
3:21 AM 69.8 °F - 68.0 °F 94% 30.11 in 7.0 mi Calm Calm - N/A   Clear
3:39 AM 68.0 °F - 66.2 °F 94% 30.11 in 7.0 mi Calm Calm - N/A   Clear
4:00 AM 69.8 °F - 68.0 °F 94% 30.11 in 5.0 mi Calm Calm - N/A   Clear
4:21 AM 68.0 °F - 68.0 °F 100% 30.11 in 7.0 mi Calm Calm - N/A   Clear
4:39 AM 68.0 °F - 66.2 °F 94% 30.10 in 5.0 mi Calm Calm - N/A   Clear
5:00 AM 68.0 °F - 66.2 °F 94% 30.10 in 5.0 mi Calm Calm - N/A   Clear
5:21 AM 68.0 °F - 66.2 °F 94% 30.11 in 5.0 mi Calm Calm - N/A   Clear
5:39 AM 68.0 °F - 66.2 °F 94% 30.11 in 5.0 mi Calm Calm - N/A   Clear
6:00 AM 68.0 °F - 66.2 °F 94% 30.11 in 4.0 mi SSW 3.5 mph - N/A   Clear
6:21 AM 68.0 °F - 66.2 °F 94% 30.11 in 5.0 mi Calm Calm - N/A   Clear
6:39 AM 69.8 °F - 68.0 °F 94% 30.11 in 5.0 mi Calm Calm - N/A   Clear
7:00 AM 71.6 °F - 69.8 °F 94% 30.12 in 7.0 mi Calm Calm - N/A   Clear
7:21 AM 71.6 °F - 69.8 °F 94% 30.12 in 10.0 mi Calm Calm - N/A   Clear
7:39 AM 73.4 °F - 71.6 °F 94% 30.12 in 10.0 mi Calm Calm - N/A   Clear
8:00 AM 75.2 °F - 71.6 °F 89% 30.12 in 10.0 mi WSW 5.8 mph - N/A   Clear
8:21 AM 78.8 °F - 71.6 °F 78% 30.12 in 10.0 mi West 6.9 mph - N/A   Clear
8:42 AM 80.6 °F 84.6 °F 71.6 °F 74% 30.12 in 10.0 mi SW 8.1 mph - N/A   Clear
9:00 AM 80.6 °F 84.6 °F 71.6 °F 74% 30.11 in 10.0 mi SW 4.6 mph - N/A   Clear
9:21 AM 80.6 °F 84.6 °F 71.6 °F 74% 30.11 in 10.0 mi West 5.8 mph - N/A   Clear
9:42 AM 82.4 °F 87.2 °F 71.6 °F 70% 30.11 in 10.0 mi WSW 6.9 mph - N/A   Clear
10:00 AM 82.4 °F 87.2 °F 71.6 °F 70% 30.11 in 10.0 mi WSW 5.8 mph - N/A   Clear
10:21 AM 84.2 °F 89.6 °F 71.6 °F 66% 30.11 in 10.0 mi WSW 5.8 mph - N/A   Clear
10:42 AM 86.0 °F 91.8 °F 71.6 °F 62% 30.11 in 10.0 mi WSW 6.9 mph - N/A   Clear
11:00 AM 86.0 °F 91.8 °F 71.6 °F 62% 30.10 in 10.0 mi SW 4.6 mph - N/A   Clear
11:21 AM 86.0 °F 90.4 °F 69.8 °F 58% 30.10 in 10.0 mi Calm Calm - N/A   Clear
11:42 AM 86.0 °F 90.4 °F 69.8 °F 58% 30.10 in 10.0 mi WSW 6.9 mph - N/A   Scattered Clouds
12:00 PM 87.8 °F 93.8 °F 71.6 °F 58% 30.10 in 10.0 mi SSW 6.9 mph - N/A   Scattered Clouds
12:21 PM 86.0 °F 91.8 °F 71.6 °F 62% 30.10 in 10.0 mi WSW 6.9 mph - N/A   Scattered Clouds
12:42 PM 87.8 °F 92.6 °F 69.8 °F 55% 30.09 in 10.0 mi South 6.9 mph - N/A   Scattered Clouds
1:00 PM 89.6 °F 94.7 °F 69.8 °F 52% 30.09 in 10.0 mi SSW 9.2 mph - N/A   Scattered Clouds
1:21 PM 87.8 °F 92.6 °F 69.8 °F 55% 30.08 in 10.0 mi South 5.8 mph - N/A   Scattered Clouds
1:42 PM 87.8 °F 92.6 °F 69.8 °F 55% 30.07 in 10.0 mi SSW 6.9 mph - N/A   Scattered Clouds
2:00 PM 87.8 °F 92.6 °F 69.8 °F 55% 30.06 in 10.0 mi South 8.1 mph - N/A   Mostly Cloudy
2:21 PM 89.6 °F 98.2 °F 73.4 °F 59% 30.05 in 10.0 mi WSW 10.4 mph - N/A   Mostly Cloudy
2:42 PM 87.8 °F 92.6 °F 69.8 °F 55% 30.04 in 10.0 mi South 8.1 mph - N/A   Mostly Cloudy
3:00 PM 89.6 °F 96.2 °F 71.6 °F 55% 30.04 in 10.0 mi SW 9.2 mph 16.1 mph N/A   Scattered Clouds
3:21 PM 87.8 °F 93.8 °F 71.6 °F 58% 30.03 in 10.0 mi SSW 9.2 mph - N/A   Scattered Clouds
3:42 PM 87.8 °F 92.6 °F 69.8 °F 55% 30.03 in 10.0 mi SSW 6.9 mph - N/A   Scattered Clouds
4:00 PM 87.8 °F 93.8 °F 71.6 °F 58% 30.03 in 10.0 mi SSW 11.5 mph 17.3 mph N/A   Mostly Cloudy
4:21 PM 87.8 °F 93.8 °F 71.6 °F 58% 30.03 in 10.0 mi WSW 10.4 mph 16.1 mph N/A   Scattered Clouds
4:42 PM 87.8 °F 93.8 °F 71.6 °F 58% 30.02 in 10.0 mi WSW 13.8 mph 19.6 mph N/A   Clear
5:00 PM 87.8 °F 92.6 °F 69.8 °F 55% 30.02 in 10.0 mi SW 11.5 mph - N/A   Clear
5:21 PM 87.8 °F 92.6 °F 69.8 °F 55% 30.02 in 10.0 mi SSW 12.7 mph - N/A   Clear
5:42 PM 86.0 °F 90.4 °F 69.8 °F 58% 30.02 in 10.0 mi SW 11.5 mph 16.1 mph N/A   Clear
6:03 PM 86.0 °F 90.4 °F 69.8 °F 58% 30.02 in 10.0 mi SW 8.1 mph - N/A   Clear
6:21 PM 82.4 °F 86.3 °F 69.8 °F 66% 30.06 in 10.0 mi WNW 18.4 mph 27.6 mph N/A   Mostly Cloudy
6:42 PM 71.6 °F - 68.0 °F 88% 30.07 in 5.0 mi WNW 8.1 mph 21.9 mph N/A   Overcast
7:03 PM 71.6 °F - 68.0 °F 88% 30.06 in 10.0 mi West 4.6 mph - N/A   Mostly Cloudy
7:21 PM 71.6 °F - 68.0 °F 88% 30.06 in 10.0 mi Calm Calm - N/A   Overcast
7:42 PM 71.6 °F - 68.0 °F 88% 30.06 in 10.0 mi Calm Calm - N/A   Mostly Cloudy
8:03 PM 71.6 °F - 69.8 °F 94% 30.07 in 10.0 mi West 4.6 mph - N/A   Scattered Clouds
8:21 PM 69.8 °F - 68.0 °F 94% 30.07 in 10.0 mi WSW 3.5 mph - N/A   Clear
8:42 PM 69.8 °F - 68.0 °F 94% 30.08 in 10.0 mi West 5.8 mph - N/A   Clear
9:03 PM 69.8 °F - 68.0 °F 94% 30.08 in 10.0 mi WSW 4.6 mph - N/A   Clear
9:21 PM 69.8 °F - 68.0 °F 94% 30.08 in 5.0 mi SW 4.6 mph - N/A   Scattered Clouds
9:42 PM 69.8 °F - 68.0 °F 94% 30.09 in 10.0 mi SW 4.6 mph - N/A   Clear
10:03 PM 69.8 °F - 68.0 °F 94% 30.09 in 10.0 mi Calm Calm - N/A   Clear
10:21 PM 68.0 °F - 66.2 °F 94% 30.09 in 10.0 mi Calm Calm - N/A   Clear
10:42 PM 68.0 °F - 66.2 °F 94% 30.08 in 10.0 mi Calm Calm - N/A   Clear
11:03 PM 68.0 °F - 66.2 °F 94% 30.08 in 10.0 mi Calm Calm - N/A   Clear
11:21 PM 68.0 °F - 66.2 °F 94% 30.09 in 10.0 mi SSW 3.5 mph - N/A   Clear
11:42 PM 68.0 °F - 66.2 °F 94% 30.08 in 10.0 mi Calm Calm - N/A   Clear